KINEIS-4E

Last updated on Mon Dec 15 2025 00:02:49 GMT+0000 (Coordinated Universal Time)

1 63300U 25056A 25348.12353867 .00003010 00000+0 48336-3 0 9997 2 63300 98.0004 110.8137 0001683 125.0471 235.0894 14.72358524 39895
UTC large
Height (km)
Speed (km/s)
/
Latitude / Longitude
Inclination (degrees)
Orbital Period (minutes)
Azimuth
Elevation
Range (km)
Doppler Factor

Next 0 passes for location: London (51.5072 / 0.1276)

Sorry there are no passes over London.